KE7YUP Weather Reports


Display with metric or nautical units.
time (UTC)temp
F
wind
direction
speed
MPH
gust
MPH
rain 1hr
in
rain 24hr
in
rain mn
in
humidity
%
barometer
mb
20211027201016 49 120 4.0 9.0 0.00 0.00 0.00 60 1027.7
20211027200016 49 135 3.0 4.0 0.00 0.00 0.00 58 1027.3
20211027195016 49 103 1.0 1.0 0.00 0.00 0.00 60 1027.8
20211027194017 48 103 0.0 2.0 0.00 0.00 0.00 61 1027.6
20211027193018 48 97 4.0 6.0 0.00 0.00 0.00 61 1027.7
20211027192016 47 126 1.0 3.0 0.00 0.00 0.00 63 1027.4
20211027191016 48 127 3.0 7.0 0.00 0.00 0.00 62 1027.3
20211027190017 47 178 2.0 5.0 0.00 0.00 0.00 63 1027.7
20211027185017 47 103 5.0 8.0 0.00 0.00 0.00 63 1027.9
20211027184017 47 146 2.0 5.0 0.00 0.00 0.00 63 1027.6
20211027183017 47 134 3.0 6.0 0.00 0.00 0.00 61 1028.1
20211027182016 47 93 2.0 8.0 0.00 0.00 0.00 62 1028.1
20211027181016 48 194 1.0 4.0 0.00 0.00 0.00 62 1028.2
20211027180016 47 153 2.0 3.0 0.00 0.00 0.00 60 1028.2
20211027175017 46 135 3.0 7.0 0.00 0.00 0.00 62 1027.7
20211027174016 46 123 3.0 5.0 0.00 0.00 0.00 62 1027.8
20211027173016 46 130 4.0 7.0 0.00 0.00 0.00 63 1027.7
20211027172016 47 129 4.0 7.0 0.00 0.00 0.00 61 1027.9
20211027171018 46 173 1.0 4.0 0.00 0.00 0.00 61 1027.7
20211027170016 46 98 2.0 6.0 0.00 0.00 0.00 60 1027.5
20211027165017 45 101 3.0 4.0 0.00 0.00 0.00 64 1027.8
20211027164016 46 119 2.0 4.0 0.00 0.00 0.00 62 1027.9
20211027163017 46 169 3.0 4.0 0.00 0.00 0.00 63 1027.9
20211027162016 45 220 0.0 1.0 0.00 0.00 0.00 63 1027.7
20211027161016 43 222 1.0 2.0 0.00 0.00 0.00 65 1027.7
20211027160015 42 221 0.0 2.0 0.00 0.00 0.00 67 1027.7
20211027155016 41 221 1.0 2.0 0.00 0.00 0.00 67 1027.4
20211027154015 41 234 1.0 2.0 0.00 0.00 0.00 67 1027.3
20211027153015 41 234 1.0 2.0 0.00 0.00 0.00 67 1026.9
20211027152015 41 240 4.0 5.0 0.00 0.00 0.00 66 1026.7
20211027151017 40 237 0.0 3.0 0.00 0.00 0.00 69 1026.5
20211027150016 39 183 2.0 2.0 0.00 0.00 0.00 71 1026.3
20211027145016 39 168 1.0 4.0 0.00 0.00 0.00 70 1026.3
20211027144015 39 334 4.0 5.0 0.00 0.00 0.00 70 1025.9
20211027143015 39 326 0.0 2.0 0.00 0.00 0.00 70 1025.4
20211027142016 39 313 2.0 3.0 0.00 0.00 0.00 69 1025.5
20211027141015 39 289 3.0 4.0 0.00 0.01 0.00 69 1025.0
20211027140015 37 309 3.0 5.0 0.00 0.01 0.00 72 1024.6
20211027135015 37 336 6.0 9.0 0.00 0.01 0.00 72 1024.7
20211027134015 38 325 8.0 9.0 0.00 0.01 0.00 70 1024.5
20211027133015 39 289 1.0 3.0 0.00 0.01 0.00 68 1024.5
20211027132015 38 286 3.0 5.0 0.00 0.01 0.00 71 1024.4
20211027131016 37 308 3.0 4.0 0.00 0.01 0.00 72 1024.4
20211027130015 37 340 4.0 5.0 0.00 0.01 0.00 72 1024.6
20211027125015 38 329 3.0 5.0 0.00 0.01 0.00 73 1024.9
20211027124015 37 313 4.0 6.0 0.00 0.01 0.00 72 1024.5
20211027123015 38 331 1.0 3.0 0.00 0.01 0.00 72 1024.2
20211027122015 38 355 6.0 8.0 0.00 0.01 0.00 70 1024.3
20211027121015 37 328 5.0 6.0 0.00 0.01 0.00 71 1024.3
20211027120015 38 327 5.0 6.0 0.00 0.01 0.00 72 1024.4
20211027115015 38 321 2.0 5.0 0.00 0.01 0.00 72 1024.4
20211027114015 38 338 3.0 4.0 0.00 0.02 0.00 72 1024.4
20211027113015 38 344 3.0 3.0 0.00 0.02 0.00 73 1024.3
20211027112016 37 359 4.0 5.0 0.00 0.02 0.00 73 1024.1
20211027111017 37 345 3.0 4.0 0.00 0.02 0.00 74 1024.1
20211027110017 38 330 1.0 2.0 0.00 0.02 0.00 72 1024.0
20211027105017 38 329 5.0 9.0 0.00 0.02 0.00 71 1024.0
20211027104017 37 325 4.0 5.0 0.00 0.02 0.00 74 1023.5
20211027103019 37 330 3.0 3.0 0.00 0.02 0.00 72 1023.4
20211027102018 38 329 1.0 2.0 0.00 0.02 0.00 72 1023.3
20211027101019 38 321 1.0 1.0 0.00 0.02 0.00 71 1023.3
20211027100017 38 321 1.0 2.0 0.00 0.02 0.00 71 1023.4
20211027095017 38 323 5.0 6.0 0.00 0.02 0.00 71 1023.2
20211027094017 38 268 4.0 4.0 0.00 0.02 0.00 70 1023.0
20211027093018 38 337 4.0 6.0 0.00 0.03 0.00 72 1023.0
20211027092018 38 303 3.0 5.0 0.00 0.03 0.00 73 1022.8
20211027091017 39 235 2.0 2.0 0.00 0.03 0.00 72 1023.0
20211027090017 40 247 1.0 2.0 0.00 0.03 0.00 70 1023.1
20211027085019 40 248 2.0 3.0 0.00 0.04 0.00 68 1023.7
20211027084018 41 248 1.0 2.0 0.00 0.04 0.00 67 1024.0
20211027083016 41 261 2.0 4.0 0.00 0.04 0.00 66 1023.6
20211027082017 41 304 1.0 4.0 0.00 0.05 0.00 66 1023.5
20211027081016 41 294 2.0 4.0 0.00 0.05 0.00 65 1023.5
20211027080016 40 282 6.0 8.0 0.00 0.06 0.00 68 1023.2
20211027075016 41 253 4.0 7.0 0.00 0.07 0.00 66 1023.4
20211027074015 40 289 2.0 3.0 0.00 0.08 0.00 67 1023.3
20211027073017 40 307 2.0 4.0 0.00 0.08 0.00 68 1023.2
20211027072015 40 279 1.0 3.0 0.00 0.09 0.00 67 1023.2
20211027071015 40 266 7.0 9.0 0.00 0.09 0.00 66 1023.2
20211027070016 41 259 6.0 8.0 0.00 0.09 0.00 65 1023.1
20211027065015 41 281 7.0 9.0 0.00 0.10 0.00 65 1023.0
20211027064016 40 267 6.0 9.0 0.00 0.12 0.00 66 1022.9
20211027063016 41 260 5.0 7.0 0.00 0.13 0.00 66 1022.5
20211027062017 41 258 6.0 8.0 0.00 0.16 0.00 66 1022.6
20211027061016 41 277 6.0 8.0 0.00 0.19 0.00 65 1022.7
20211027060018 41 268 6.0 10.0 0.00 0.21 0.00 66 1022.7
20211027055017 41 270 6.0 8.0 0.00 0.22 0.21 66 1022.7
20211027054017 41 274 5.0 8.0 0.00 0.22 0.21 67 1022.9
20211027053017 41 277 3.0 4.0 0.00 0.22 0.21 67 1022.3
20211027052017 41 286 2.0 3.0 0.00 0.23 0.21 66 1022.7
20211027051016 41 317 3.0 4.0 0.00 0.24 0.21 66 1022.2
20211027050018 41 322 5.0 6.0 0.00 0.25 0.21 66 1022.1
20211027045017 42 276 1.0 4.0 0.00 0.26 0.21 64 1022.1
20211027044016 41 271 5.0 7.0 0.00 0.28 0.21 64 1022.0
20211027043017 41 263 5.0 8.0 0.00 0.31 0.21 66 1022.1
20211027042017 41 256 6.0 9.0 0.00 0.33 0.21 69 1021.8
20211027041017 41 230 4.0 6.0 0.00 0.35 0.21 67 1022.1
20211027040017 41 329 2.0 3.0 0.00 0.38 0.21 66 1021.3
20211027035017 42 295 0.0 2.0 0.00 0.41 0.21 65 1021.6
20211027034017 42 302 4.0 5.0 0.00 0.42 0.21 65 1021.4
20211027033016 42 313 5.0 7.0 0.00 0.44 0.21 67 1021.0
20211027032017 42 334 5.0 6.0 0.00 0.46 0.21 66 1020.8
20211027031017 43 276 3.0 7.0 0.00 0.47 0.21 64 1020.8
20211027030016 43 282 6.0 8.0 0.00 0.47 0.21 60 1020.4
20211027025017 43 290 6.0 10.0 0.00 0.47 0.21 62 1020.4
20211027024016 42 303 4.0 6.0 0.00 0.47 0.21 64 1020.5
20211027023016 42 301 3.0 4.0 0.00 0.47 0.21 64 1020.3
20211027022016 42 288 5.0 8.0 0.00 0.47 0.21 65 1020.3
20211027021016 41 318 3.0 4.0 0.00 0.47 0.21 66 1019.7
20211027020016 41 320 4.0 4.0 0.00 0.47 0.21 67 1019.7
20211027015017 41 321 3.0 4.0 0.00 0.47 0.21 66 1019.7
20211027014017 41 340 2.0 4.0 0.00 0.47 0.21 67 1019.5
20211027013017 40 337 3.0 4.0 0.00 0.47 0.21 68 1019.4
20211027012016 40 336 3.0 4.0 0.00 0.47 0.21 67 1019.2
20211027011016 42 335 3.0 3.0 0.00 0.47 0.21 63 1019.2
20211027010016 43 0.0 0.0 0.00 0.47 0.21 60 1019.3
20211027005017 44 263 3.0 6.0 0.00 0.47 0.21 58 1019.6
20211027004016 44 40 3.0 6.0 0.00 0.47 0.21 56 1019.3
20211027003017 44 292 1.0 7.0 0.00 0.47 0.21 55 1019.1
20211027002016 45 3 2.0 4.0 0.00 0.47 0.21 55 1018.9
20211027001016 45 333 6.0 11.0 0.00 0.47 0.21 55 1018.8
20211027000016 45 325 6.0 12.0 0.00 0.47 0.21 53 1018.6
20211026235016 46 346 8.0 13.0 0.00 0.47 0.21 53 1018.5
20211026234017 46 341 11.0 14.0 0.00 0.47 0.21 52 1018.4
20211026233016 46 313 8.0 14.0 0.00 0.47 0.21 52 1018.3
20211026232016 47 314 9.0 12.0 0.00 0.47 0.21 51 1018.1
20211026231016 47 306 13.0 18.0 0.00 0.47 0.21 49 1017.8
20211026230018 47 335 11.0 18.0 0.00 0.47 0.21 50 1017.6
20211026225017 46 353 11.0 15.0 0.00 0.47 0.21 51 1017.2
20211026224017 46 344 15.0 24.0 0.00 0.47 0.21 51 1017.1
20211026223016 46 313 14.0 18.0 0.00 0.47 0.21 52 1016.9
20211026222016 46 347 12.0 25.0 0.00 0.47 0.21 53 1017.0
20211026221016 45 338 15.0 23.0 0.00 0.47 0.21 55 1016.5
20211026220017 45 337 9.0 11.0 0.00 0.47 0.21 56 1016.2
20211026215016 45 343 11.0 14.0 0.00 0.47 0.21 56 1016.2
20211026214016 45 308 6.0 10.0 0.00 0.47 0.21 56 1015.9
20211026213017 45 350 16.0 22.0 0.00 0.47 0.21 55 1015.8
20211026212016 45 312 14.0 20.0 0.00 0.47 0.21 55 1015.7
20211026211016 45 308 14.0 22.0 0.00 0.47 0.21 55 1015.5
20211026210016 46 296 10.0 16.0 0.00 0.47 0.21 56 1015.2
20211026205017 46 303 11.0 16.0 0.00 0.47 0.21 56 1015.2
20211026204017 47 319 12.0 17.0 0.00 0.47 0.21 54 1015.5
20211026203015 46 308 8.0 12.0 0.00 0.47 0.21 55 1015.2
20211026202015 46 291 10.0 17.0 0.00 0.47 0.21 56 1015.2